E1763 Weather Reports


Display with metric or nautical units.
time (UTC)temp
F
wind
direction
speed
MPH
gust
MPH
rain 1hr
in
rain 24hr
in
rain mn
in
humidity
%
barometer
mb
20260831060058 53 196 0.0 0.0 0.00 0.00 0.00 92 1006.5
20260831054547 53 196 0.0 0.0 0.00 0.00 0.00 92 1006.5
20260831053045 53 205 0.0 0.0 0.00 0.00 0.00 92 1006.5
20260831051558 53 211 0.0 0.0 0.00 0.00 0.00 91 1006.7
20260831050047 54 211 0.0 0.0 0.00 0.00 0.00 91 1006.8
20260831044544 54 211 0.0 0.0 0.00 0.00 0.00 90 1007.0
20260831043042 54 211 0.0 0.0 0.00 0.00 0.00 89 1007.0
20260831041542 55 211 0.0 0.0 0.00 0.00 0.00 88 1006.9
20260831040047 55 211 0.0 0.0 0.00 0.00 0.00 87 1006.7
20260831034541 56 211 0.0 0.0 0.00 0.00 0.00 86 1006.6
20260831033040 57 221 0.0 0.0 0.00 0.00 0.00 84 1006.6
20260831031542 58 197 0.0 0.0 0.00 0.00 0.00 82 1006.6
20260831030039 59 221 0.0 0.0 0.00 0.00 0.00 79 1006.5
20260831024539 61 208 0.0 0.0 0.00 0.00 0.00 76 1006.4
20260831023042 63 205 0.0 0.0 0.00 0.00 0.00 72 1006.4
20260831021552 65 229 0.0 0.0 0.00 0.00 0.00 69 1006.4
20260831020038 67 222 0.0 0.0 0.00 0.00 0.00 66 1006.5
20260831014537 69 201 0.0 0.0 0.00 0.00 0.00 63 1006.6
20260831013037 71 221 0.0 0.0 0.00 0.00 0.00 59 1006.5
20260831011540 73 211 0.0 0.0 0.00 0.00 0.00 57 1006.5
20260831010058 74 180 0.0 0.0 0.00 0.00 0.00 55 1006.4
20260831004536 75 156 0.0 0.0 0.00 0.00 0.00 54 1006.6
20260831003032 76 231 0.0 0.0 0.00 0.00 0.00 53 1006.6
20260831001549 76 296 0.0 0.0 0.00 0.00 0.00 54 1006.6
20260831000029 78 191 0.0 0.0 0.00 0.00 0.00 51 1006.6
20260830234530 79 201 0.0 0.0 0.00 0.00 0.00 52 1006.7
20260830233027 79 168 0.0 0.0 0.00 0.00 0.00 49 1006.6
20260830231530 80 220 0.0 0.0 0.00 0.00 0.00 48 1006.8
20260830230022 80 180 0.0 1.0 0.00 0.00 0.00 47 1006.9
20260830224521 81 234 0.0 0.0 0.00 0.00 0.00 47 1007.0
20260830223022 80 218 0.0 0.0 0.00 0.00 0.00 46 1007.1
20260830221518 81 205 0.0 1.0 0.00 0.00 0.00 43 1007.3
20260830220018 80 177 0.0 0.0 0.00 0.00 0.00 47 1007.5
20260830214512 80 232 1.0 5.0 0.00 0.00 0.00 49 1007.6
20260830213009 80 202 0.0 3.0 0.00 0.00 0.00 47 1007.9
20260830211516 80 188 0.0 0.0 0.00 0.00 0.00 49 1007.9
20260830210007 80 171 0.0 0.0 0.00 0.00 0.00 50 1008.1
20260830204504 79 185 0.0 0.0 0.00 0.00 0.00 50 1008.1
20260830203119 79 237 0.0 0.0 0.00 0.00 0.00 49 1008.1
20260830201600 80 226 0.0 2.0 0.00 0.00 0.00 50 1008.3
20260830200100 81 226 0.0 1.0 0.00 0.00 0.00 50 1008.3
20260830194552 79 182 0.0 3.0 0.00 0.00 0.00 49 1008.3
20260830193049 77 176 0.0 0.0 0.00 0.00 0.00 52 1008.4
20260830191548 76 350 0.0 0.0 0.00 0.00 0.00 51 1008.6
20260830190045 76 208 0.0 0.0 0.00 0.00 0.00 54 1008.6
20260830184540 73 192 0.0 0.0 0.00 0.00 0.00 58 1008.7
20260830183038 72 286 0.0 0.0 0.00 0.00 0.00 58 1008.7
20260830181541 70 187 0.0 0.0 0.00 0.00 0.00 61 1008.6
20260830180047 68 164 0.0 0.0 0.00 0.00 0.00 66 1008.7
20260830174528 66 194 0.0 0.0 0.00 0.00 0.00 70 1008.7
20260830173044 65 155 0.0 0.0 0.00 0.00 0.00 74 1008.6
20260830171520 62 188 0.0 0.0 0.00 0.00 0.00 77 1008.6
20260830170017 61 142 0.0 0.0 0.00 0.00 0.00 81 1008.6
20260830164511 60 196 0.0 0.0 0.00 0.00 0.00 84 1008.6
20260830163010 59 200 0.0 0.0 0.00 0.00 0.00 85 1008.5
20260830161505 58 200 0.0 0.0 0.00 0.00 0.00 90 1008.7
20260830154558 55 194 0.0 0.0 0.00 0.00 0.00 94 1008.7
20260830153054 54 188 0.0 0.0 0.00 0.00 0.00 95 1008.7
20260830151552 53 188 0.0 0.0 0.00 0.00 0.00 96 1008.6
20260830150050 50 29 0.0 0.0 0.00 0.00 0.00 96 1008.6
20260830144548 49 29 0.0 0.0 0.00 0.00 0.00 95 1008.6
20260830143052 49 29 0.0 0.0 0.00 0.00 0.00 95 1008.5
20260830141548 49 238 0.0 0.0 0.00 0.00 0.00 95 1008.4
20260830140056 48 234 0.0 0.0 0.00 0.00 0.00 94 1008.2
20260830134551 49 234 0.0 0.0 0.00 0.00 0.00 95 1008.1
20260830133045 49 234 0.0 0.0 0.00 0.00 0.00 95 1008.1
20260830131604 49 234 0.0 0.0 0.00 0.00 0.00 95 1008.1
20260830130042 49 234 0.0 0.0 0.00 0.00 0.00 94 1008.0
20260830124541 49 234 0.0 0.0 0.00 0.01 0.00 94 1008.0
20260830123044 49 234 0.0 0.0 0.00 0.01 0.00 94 1008.0
20260830121539 49 234 0.0 0.0 0.00 0.01 0.00 94 1008.0
20260830120037 49 234 0.0 0.0 0.00 0.01 0.00 94 1008.1
20260830114546 49 234 0.0 0.0 0.00 0.01 0.00 94 1008.2
20260830113039 49 234 0.0 0.0 0.00 0.01 0.00 94 1008.2
20260830111533 50 234 0.0 0.0 0.00 0.01 0.00 94 1008.2
20260830110037 50 234 0.0 0.0 0.00 0.01 0.00 94 1008.3
20260830104533 50 234 0.0 0.0 0.00 0.01 0.00 93 1008.2
20260830103030 50 234 0.0 0.0 0.00 0.01 0.00 93 1008.3
20260830101532 51 234 0.0 0.0 0.00 0.01 0.00 94 1008.3
20260830100027 50 234 0.0 0.0 0.00 0.01 0.00 93 1008.4
20260830094526 50 234 0.0 0.0 0.00 0.01 0.00 93 1008.4
20260830093024 51 234 0.0 0.0 0.00 0.01 0.00 93 1008.4
20260830091527 51 234 0.0 0.0 0.00 0.01 0.00 93 1008.4
20260830090022 51 234 0.0 0.0 0.00 0.01 0.00 92 1008.5
20260830084520 51 234 0.0 0.0 0.00 0.01 0.00 92 1008.5
20260830083018 51 234 0.0 0.0 0.00 0.01 0.00 92 1008.5
20260830081523 51 234 0.0 0.0 0.00 0.01 0.00 91 1008.7
20260830080019 51 234 0.0 0.0 0.00 0.01 0.00 91 1008.8
20260830074521 51 234 0.0 0.0 0.00 0.01 0.00 91 1008.7
20260830073011 52 234 0.0 0.0 0.00 0.01 0.00 90 1008.8
20260830071511 52 234 0.0 0.0 0.00 0.01 0.00 90 1008.8
20260830070007 53 234 0.0 0.0 0.00 0.01 0.00 90 1008.8
20260830064506 53 234 0.0 0.0 0.00 0.01 0.01 89 1008.9
20260830063007 53 234 0.0 0.0 0.00 0.01 0.01 89 1009.0
20260830061517 53 234 0.0 0.0 0.00 0.01 0.01 88 1009.0